星链-3297 (STARLINK-3297 )

导读

STARLINK-3297是美国太空探索技术公司(SpaceX)发射的星链低轨互联网卫星,于2021年12月18日发射升空,是星链卫星互联网星座的组成单元。它主要为全球偏远、通信基础设施匮乏地区提供高速互联网接入服务,同时也能增强全球网络覆盖的连续性,助力SpaceX实现全球卫星互联网组网的目标。

基本信息
目录编号:
50159
目录名称:
STARLINK-3297
国际标识:
2021-125D
轨道中心:
EARTH
卫星名称:
星链-3297
卫星全名:
星链-3297 (STARLINK-3297 )
卫星状态:
在轨 (已飞行1721 天)
发射日期:
2021-12-18 UTC
国别 :
美国 (US)
星等 :
--
轨道信息
数据来源 国际轨道数据
星历时间: 2026-09-04T03:47:20+0800
8小时前
查看轨道信息
半长轴: 6843.392km
偏心率: 0.0001528
轨道倾角: 53.159°
近地点辐角 86.138°
升交点赤经 169.881°
平近点角 273.979°
近地点: 464.209km
远地点: 466.301km
周期: 93.900分钟
每日圈数: 15.33542
详细信息
固有亮度:
5
最大亮度:
2.5
卫星平台:
Starlink v1.5
覆盖范围:
全球
运营商:
太空探索技术公司
运营商所在国:
美国
制造商(研发单位):
太空探索技术公司
制造商所在国:
美国
使用方式:
暂无
卫星简介
星链(Starlink)计划是由太空探索技术公司(SpaceX)提出的一个巨型低轨卫星互联网星座项目,计划在2019年至2024年间在太空搭建由约1.2万颗卫星组成的“星链”网络,其中1584颗将部署在地球上空550千米处的近地轨道,并从2020年开始工作。该卫星仍在工作。
2D轨道图
3D轨道图
轨道高度分析图
轨道倾角分析图
轨道综合分析图
查看轨道综合分析图
交会数据列表
事件ID 空间交会对象 最接近时刻(TCA) 交会距离 交会风险概率(CRP) 交会风险指数(CRI) 操作
CDM_260903-155205-015905-303021
2026-09-03T
15:52:58+0000
2.550 km
极远距离
1.514201E-6 低风险 0.39
CDM_260905-115405-015906-474321
2026-09-05T
11:54:43+0000
2.594 km
极远距离
1.250884E-6 低风险 0.37
CDM_260903-092605-015906-421221
2026-09-03T
09:26:01+0000
2.749 km
极远距离
1.244239E-6 低风险 0.37
CDM_260829-184105-015906-662521
2026-08-29T
18:41:51+0000
2.845 km
极远距离
1.242479E-6 低风险 0.37
CDM_260903-031005-015906-613422
2026-09-03T
03:10:22+0000
2.803 km
极远距离
1.204737E-6 低风险 0.37
CDM_260903-031105-015906-336421
2026-09-03T
03:11:55+0000
2.901 km
极远距离
1.182157E-6 低风险 0.36
CDM_260903-004905-015906-613422
2026-09-03T
00:49:38+0000
2.980 km
极远距离
1.114408E-6 低风险 0.36
CDM_260905-001405-015905-325121
2026-09-05T
00:14:22+0000
2.620 km
极远距离
1.025561E-6 低风险 0.35
CDM_260829-181305-015906-827122
2026-08-29T
18:13:40+0000
2.733 km
极远距离
7.244103E-7 极低风险 0.32